[[{"header":{"parameterUnit":"m.s-1","parameterCategory":1,"la1":30.2991,"la2":30.254,"lo1":-89.0895,"lo2":-89.0444,"dy":0.0017,"dx":0.0017,"nx":28,"ny":28,"refTime":"2025-12-28T03:00:00:Z","depth":0,"parameterNumber":2,"parameterNumberName":"U-component_of_WINDS"},"data":[0,0,0,0,0,0,0,0,0,0,0,0,0,0,0,0,0,0,0,0,0,0,0,0,0,0,0,0,0,0,0,0,0,0,0,0,0,0,0,0,0,0,0,0,0,0,0,0,0,0,0,0,0,0,0,0,0,0,-1.1495,-1.1495,0,-1.1452,-1.1452,-1.1451,-1.1411,-1.141,-1.141,-1.1409,-1.1363,-1.1363,-1.1362,0,0,0,0,0,0,0,0,0,0,0,0,0,-1.1541,-1.1541,-1.1495,-1.1495,-1.1494,-1.1452,-1.1452,-1.1451,-1.1411,-1.141,-1.1409,-1.1409,-1.1363,-1.1363,-1.1362,0,0,0,0,0,0,0,0,0,0,0,0,0,-1.1512,-1.154,-1.1495,-1.1469,-1.1466,-1.1452,-1.1452,-1.1451,-1.1411,-1.141,-1.1409,-1.1409,-1.1364,-1.1363,-1.1362,-1.137,0,0,-1.1358,-1.1358,0,0,0,0,0,0,0,0,-1.1514,-1.151,-1.1473,-1.1471,-1.1468,-1.1436,-1.1451,-1.1424,-1.1411,-1.1432,-1.1409,-1.1408,-1.1388,-1.1385,-1.1378,-1.1367,-1.1365,-1.1358,-1.1357,-1.1357,-1.1357,0,0,0,0,0,0,0,-1.1516,-1.1512,-1.1478,-1.1473,-1.1469,-1.1459,-1.1454,-1.1446,-1.1415,-1.143,-1.1427,-1.1422,-1.1386,-1.1379,-1.1377,-1.1365,-1.1358,-1.1357,-1.1356,-1.1356,-1.1358,-1.1359,0,0,0,0,0,0,-1.1522,-1.1514,-1.1479,-1.1477,-1.1489,-1.1459,-1.1453,-1.1447,-1.1415,-1.1409,-1.1423,-1.1421,-1.1382,-1.1378,-1.1375,-1.1382,-1.1357,-1.1356,-1.1355,-1.1358,-1.1359,-1.1359,0,0,0,0,0,0,-1.1523,-1.1519,-1.1481,-1.1494,-1.1489,-1.1459,-1.1452,-1.1446,-1.144,-1.1409,-1.1404,-1.1422,-1.1381,-1.1377,-1.1371,-1.138,-1.1355,-1.1354,-1.1357,-1.1358,-1.1359,-1.1397,0,0,0,0,0,0,-1.1525,-1.152,-1.1523,-1.1495,-1.1488,-1.1479,-1.1453,-1.1446,-1.1438,-1.1434,-1.1407,-1.1401,-1.138,-1.1373,-1.137,-1.1378,-1.1353,-1.1356,-1.1357,-1.1359,-1.1394,-1.1399,-1.1403,0,0,0,0,0,-1.1526,-1.1535,-1.1523,-1.1519,-1.1491,-1.1479,-1.1475,-1.1451,-1.1439,-1.1441,-1.1422,-1.1402,-1.138,-1.1373,-1.1369,-1.1377,-1.1355,-1.1357,-1.1359,-1.1393,-1.1398,-1.1403,0,0,0,0,0,0,-1.1564,-1.153,-1.1517,-1.1517,-1.1501,-1.1472,-1.1475,-1.1458,-1.1444,-1.1442,-1.1412,-1.1406,-1.1404,-1.139,-1.1383,-1.1383,-1.1365,-1.1366,-1.1392,-1.1397,-1.1401,-1.1404,-1.1352,0,0,0,0,0,-1.1572,-1.1565,-1.1537,-1.1539,-1.1532,-1.1505,-1.1499,-1.1482,-1.1464,-1.1457,-1.1437,-1.142,-1.1409,-1.1402,-1.1391,-1.1393,-1.1386,-1.1396,-1.14,-1.1404,-1.1404,-1.1404,-1.1408,-1.1365,-1.1365,-1.1365,0,0,-1.1589,-1.157,-1.1567,-1.1546,-1.1532,-1.1525,-1.1499,-1.1493,-1.1488,-1.1455,-1.1449,-1.1434,-1.1414,-1.1412,-1.141,-1.14,-1.1415,-1.1406,-1.1409,-1.1408,-1.1407,-1.1411,-1.1414,-1.1366,-1.1366,-1.1366,0,0,-1.1616,-1.1601,-1.1601,-1.1588,-1.1567,-1.1549,-1.155,-1.1524,-1.1513,-1.1506,-1.1482,-1.1475,-1.1457,-1.1443,-1.1433,-1.1457,-1.1438,-1.1454,-1.1475,-1.1475,-1.1478,-1.1481,-1.1489,-1.1492,-1.1455,-1.1455,-1.1455,0,-1.1639,-1.1628,-1.1604,-1.1599,-1.159,-1.1562,-1.1562,-1.155,-1.1526,-1.1521,-1.151,-1.1487,-1.1471,-1.1466,-1.1472,-1.1465,-1.1464,-1.1456,-1.148,-1.1483,-1.1485,-1.1492,-1.1495,-1.1457,-1.1457,-1.1457,-1.1456,0,-1.1658,-1.1651,-1.1653,-1.1632,-1.1624,-1.1621,-1.1596,-1.1591,-1.1575,-1.1558,-1.1552,-1.1532,-1.1516,-1.1514,-1.1498,-1.1506,-1.1501,-1.1486,-1.1466,-1.1491,-1.1497,-1.15,-1.146,-1.1459,-1.1459,-1.1458,0,0,-1.1705,-1.1671,-1.1672,-1.1662,-1.1638,-1.1632,-1.1629,-1.1614,-1.1609,-1.1594,-1.159,-1.1576,-1.1562,-1.1552,-1.1534,-1.1535,-1.1554,-1.1519,-1.1518,-1.1526,-1.1561,-1.1572,-1.1576,-1.1542,-1.1542,-1.1543,-1.1563,0,-1.1727,-1.172,-1.1698,-1.1697,-1.169,-1.1664,-1.1661,-1.1645,-1.163,-1.1622,-1.1604,-1.1595,-1.1578,-1.1571,-1.157,-1.1552,-1.156,-1.155,-1.1537,-1.1537,-1.1542,-1.1579,-1.159,-1.161,-1.1565,-1.1565,-1.1566,0,-1.1752,-1.1739,-1.1738,-1.1714,-1.171,-1.1708,-1.1693,-1.1685,-1.1667,-1.1656,-1.1645,-1.1626,-1.162,-1.1604,-1.1596,-1.1589,-1.1583,-1.1573,-1.1573,-1.157,-1.1552,-1.1576,-1.1616,-1.1619,-1.1569,-1.1569,-1.1569,0,-1.1786,-1.1769,-1.1766,-1.1758,-1.173,-1.1729,-1.1718,-1.1699,-1.1692,-1.1678,-1.1673,-1.1659,-1.1651,-1.1641,-1.1618,-1.1608,-1.1612,-1.1594,-1.1602,-1.1603,-1.1603,-1.1603,-1.1642,-1.1601,-1.1601,-1.1601,-1.1601,0,-1.1812,-1.1812,-1.1781,-1.1779,-1.1778,-1.1753,-1.1753,-1.1739,-1.1722,-1.1717,-1.1693,-1.1689,-1.166,-1.1651,-1.1634,-1.163,-1.1626,-1.1617,-1.1612,-1.1618,-1.1619,-1.1613,-1.161,-1.1602,-1.1601,-1.1601,-1.1601,0,-1.185,-1.1829,-1.1823,-1.1798,-1.1792,-1.1792,-1.177,-1.1767,-1.1751,-1.1744,-1.1741,-1.1716,-1.1705,-1.1682,-1.1665,-1.1653,-1.1653,-1.1644,-1.1659,-1.1655,-1.1665,-1.1664,-1.1699,-1.1703,-1.1661,-1.1661,-1.1662,0,-1.1867,-1.1867,-1.1842,-1.1837,-1.1826,-1.1818,-1.1811,-1.1787,-1.178,-1.176,-1.1759,-1.1747,-1.1735,-1.1719,-1.1699,-1.1686,-1.1676,-1.169,-1.1674,-1.1681,-1.1675,-1.1675,-1.1675,-1.1693,-1.1693,-1.1694,-1.1694,0,-1.1901,-1.1891,-1.1881,-1.1868,-1.186,-1.1848,-1.1835,-1.1832,-1.1805,-1.1798,-1.1787,-1.1779,-1.1762,-1.175,-1.1733,-1.1721,-1.1703,-1.17,-1.1701,-1.1707,-1.1715,-1.171,-1.1667,-1.1699,-1.1698,-1.1698,-1.1698,-1.1697,-1.1928,-1.1927,-1.1909,-1.1899,-1.1887,-1.1875,-1.1871,-1.1855,-1.1846,-1.183,-1.1817,-1.1807,-1.1789,-1.1766,-1.1755,-1.1747,-1.1738,-1.1739,-1.174,-1.174,-1.1743,-1.1717,-1.1744,-1.1744,-1.1743,-1.1743,-1.1743,0,-1.196,-1.1947,-1.1939,-1.1922,-1.1914,-1.1899,-1.1884,-1.1878,-1.187,-1.1856,-1.1845,-1.1833,-1.1821,-1.18,-1.1787,-1.1784,-1.1775,-1.1781,-1.178,-1.1778,-1.1752,-1.1752,-1.1788,-1.1788,-1.1788,-1.1788,-1.1788,-1.1788,-1.1975,-1.1971,-1.1959,-1.1949,-1.1937,-1.1928,-1.192,-1.191,-1.1898,-1.1885,-1.1876,-1.1862,-1.1845,-1.183,-1.1819,-1.1813,-1.1808,-1.1817,-1.1808,-1.1784,-1.178,-1.1775,-1.1775,-1.1816,-1.1816,-1.1835,-1.1835,-1.1835]},{"header":{"parameterUnit":"m.s-1","parameterCategory":1,"la1":30.2991,"la2":30.254,"lo1":-89.0895,"lo2":-89.0444,"dy":0.0017,"dx":0.0017,"nx":28,"ny":28,"refTime":"2025-12-28T03:00:00:Z","depth":0,"parameterNumber":3,"parameterNumberName":"V-component_of_WINDS"},"data":[0,0,0,0,0,0,0,0,0,0,0,0,0,0,0,0,0,0,0,0,0,0,0,0,0,0,0,0,0,0,0,0,0,0,0,0,0,0,0,0,0,0,0,0,0,0,0,0,0,0,0,0,0,0,0,0,0,0,2.5328,2.5328,0,2.5299,2.5298,2.5298,2.5261,2.5261,2.526,2.5259,2.5228,2.5227,2.5227,0,0,0,0,0,0,0,0,0,0,0,0,0,2.5351,2.5351,2.5328,2.5328,2.5327,2.5299,2.5298,2.5298,2.5261,2.5261,2.526,2.5259,2.5228,2.5228,2.5227,0,0,0,0,0,0,0,0,0,0,0,0,0,2.5334,2.5351,2.5328,2.5306,2.5303,2.5299,2.5298,2.5298,2.5261,2.5261,2.526,2.5259,2.5228,2.5228,2.5227,2.5242,0,0,2.5226,2.5226,0,0,0,0,0,0,0,0,2.5335,2.5333,2.5309,2.5307,2.5305,2.5283,2.5295,2.5279,2.5262,2.5277,2.5259,2.5258,2.5247,2.5245,2.5241,2.524,2.5239,2.5226,2.5225,2.5225,2.5225,0,0,0,0,0,0,0,2.5336,2.5334,2.5316,2.5309,2.5306,2.5297,2.5293,2.5292,2.5267,2.5276,2.5273,2.527,2.5245,2.5242,2.524,2.5239,2.5226,2.5225,2.5225,2.5225,2.5249,2.525,0,0,0,0,0,0,2.5341,2.5335,2.5317,2.5316,2.5318,2.5297,2.5293,2.5291,2.5267,2.5263,2.5271,2.5269,2.5243,2.5241,2.5239,2.5255,2.5225,2.5225,2.5225,2.5249,2.525,2.5251,0,0,0,0,0,0,2.5341,2.534,2.5319,2.5325,2.5321,2.5298,2.5295,2.5291,2.5287,2.5263,2.5259,2.5272,2.5242,2.5239,2.5242,2.5254,2.5225,2.5224,2.5247,2.5249,2.525,2.5288,0,0,0,0,0,0,2.5342,2.534,2.5346,2.5325,2.5321,2.5323,2.5296,2.5291,2.5286,2.5283,2.5263,2.5259,2.5241,2.5243,2.5241,2.5252,2.5224,2.5246,2.5248,2.525,2.5286,2.5291,2.5295,0,0,0,0,0,2.5343,2.5357,2.5346,2.5344,2.5328,2.5323,2.5321,2.5301,2.5287,2.5293,2.5278,2.5259,2.5252,2.5243,2.5241,2.5253,2.5245,2.5248,2.525,2.5284,2.529,2.5295,0,0,0,0,0,0,2.5379,2.5354,2.5341,2.5349,2.5339,2.5317,2.5323,2.5307,2.53,2.5297,2.5272,2.5268,2.5273,2.5263,2.5253,2.5266,2.5246,2.5248,2.5273,2.5278,2.5283,2.5285,2.5223,0,0,0,0,0,2.5388,2.5387,2.5364,2.5373,2.5369,2.5347,2.5344,2.533,2.5318,2.5313,2.5298,2.5287,2.5282,2.5279,2.5274,2.5284,2.5279,2.5291,2.5295,2.5299,2.5301,2.5307,2.5312,2.5257,2.5257,2.5257,0,0,2.5406,2.5392,2.5393,2.538,2.537,2.537,2.5344,2.5344,2.5343,2.5313,2.5315,2.5303,2.5289,2.5296,2.5298,2.5287,2.5315,2.5302,2.5305,2.5305,2.5309,2.5315,2.5319,2.5259,2.5259,2.5258,0,0,2.5438,2.5428,2.5434,2.5425,2.5411,2.5397,2.5398,2.5379,2.5371,2.5372,2.535,2.5348,2.5341,2.5332,2.5326,2.5356,2.5339,2.5355,2.5379,2.5385,2.5389,2.5393,2.5404,2.5409,2.5357,2.5357,2.5357,0,2.5463,2.5461,2.5439,2.5442,2.5437,2.541,2.5417,2.5409,2.5393,2.5391,2.5379,2.5369,2.5358,2.5363,2.537,2.5366,2.5367,2.5357,2.539,2.5394,2.5397,2.5408,2.5412,2.5359,2.5359,2.5359,2.5358,0,2.5492,2.5491,2.5498,2.5485,2.5481,2.5485,2.5464,2.5463,2.5449,2.5435,2.5437,2.5423,2.5414,2.5414,2.5399,2.5417,2.5411,2.5395,2.5375,2.5405,2.5414,2.5418,2.5362,2.5361,2.5361,2.536,0,0,2.5547,2.5522,2.5525,2.5519,2.5502,2.55,2.5504,2.5496,2.5495,2.5485,2.5488,2.5482,2.5468,2.5462,2.5446,2.5451,2.5477,2.5435,2.5434,2.5444,2.5496,2.5509,2.5514,2.5465,2.5466,2.5467,2.5498,0,2.5577,2.5582,2.5563,2.5572,2.5572,2.5546,2.5549,2.5539,2.5526,2.5524,2.551,2.5507,2.5488,2.5484,2.5488,2.5473,2.5487,2.547,2.5467,2.5468,2.5473,2.5519,2.5532,2.5562,2.5501,2.5502,2.5502,0,2.5613,2.5606,2.5616,2.5599,2.5598,2.5601,2.5593,2.5591,2.5578,2.5569,2.5563,2.5545,2.5547,2.5527,2.5529,2.5518,2.5516,2.5508,2.5509,2.5509,2.5487,2.552,2.5571,2.5576,2.5508,2.5507,2.5507,0,2.5654,2.5647,2.5652,2.5647,2.5627,2.563,2.5622,2.5608,2.5605,2.5598,2.5595,2.5588,2.5584,2.5578,2.5559,2.5546,2.5564,2.5542,2.5557,2.5557,2.5562,2.5562,2.5614,2.5559,2.5559,2.5559,2.5559,0,2.569,2.5697,2.567,2.5673,2.5681,2.5658,2.5666,2.5655,2.5644,2.5644,2.5621,2.5622,2.5596,2.5595,2.5579,2.5584,2.5582,2.5575,2.5571,2.5578,2.5579,2.5576,2.5574,2.556,2.556,2.556,2.556,0,2.5737,2.5719,2.5723,2.5704,2.5699,2.5705,2.5689,2.5691,2.5677,2.5678,2.5677,2.5656,2.5653,2.5633,2.5624,2.5614,2.5625,2.5616,2.5629,2.5627,2.5643,2.5642,2.5695,2.5701,2.5642,2.5643,2.5643,0,2.5762,2.5767,2.5749,2.5748,2.5741,2.5739,2.5736,2.5714,2.5712,2.5698,2.5702,2.5697,2.5692,2.5688,2.5672,2.5666,2.5657,2.5676,2.5656,2.5663,2.5659,2.5659,2.566,2.5681,2.5682,2.5682,2.5683,0,2.5809,2.58,2.5796,2.579,2.5787,2.5781,2.5773,2.5773,2.5749,2.5747,2.5744,2.574,2.5732,2.5728,2.5719,2.571,2.5693,2.5689,2.5692,2.5699,2.5707,2.5704,2.5642,2.5688,2.5688,2.5687,2.5687,2.5687,2.5846,2.585,2.5838,2.5835,2.5827,2.582,2.5822,2.5809,2.5806,2.5798,2.5785,2.5784,2.5771,2.5758,2.575,2.5749,2.5739,2.5743,2.5744,2.5746,2.575,2.5707,2.5747,2.5747,2.5747,2.5746,2.5746,0,2.5893,2.5884,2.5881,2.5872,2.5869,2.5853,2.5844,2.5843,2.5843,2.5833,2.5829,2.5825,2.5821,2.5804,2.5798,2.58,2.5792,2.5799,2.5799,2.5798,2.5759,2.5757,2.5806,2.5806,2.5806,2.5806,2.5806,2.5806,2.5917,2.5923,2.5912,2.5914,2.5904,2.5904,2.59,2.5894,2.5886,2.5883,2.588,2.5869,2.5857,2.5849,2.5845,2.584,2.5839,2.5849,2.5842,2.5806,2.58,2.5795,2.5793,2.5849,2.5849,2.5881,2.5882,2.5882]}]]